Date,TemperatureHighF,TemperatureAvgF,TemperatureLowF,DewpointHighF,DewpointAvgF,DewpointLowF,HumidityHigh,HumidityAvg,HumidityLow,PressureMaxIn,PressureMinIn,WindSpeedMaxMPH,WindSpeedAvgMPH,GustSpeedMaxMPH,PrecipitationSumIn
2013-3-1,40.8,29.6,20.5,33.0,26.2,19.0,95,87,74,30.39,30.12,8,2,0,0.00
2013-3-2,45.0,36.2,30.2,37.0,31.7,27.0,94,84,71,30.15,29.91,11,2,0,0.00
2013-3-3,38.7,34.4,31.0,37.0,32.6,30.0,96,93,86,29.91,29.60,8,2,0,0.11
2013-3-4,29.6,19.9,12.3,28.0,18.1,10.0,95,92,90,30.48,29.68,20,5,0,0.00
2013-3-5,23.1,14.3,10.3,20.0,11.8,8.0,91,89,85,30.60,30.44,9,2,0,0.13
2013-3-6,27.1,20.5,10.6,24.0,17.6,8.0,92,88,85,30.44,30.05,12,5,0,0.00
2013-3-7,31.3,25.4,20.2,28.0,22.0,17.0,92,87,80,30.25,30.02,12,4,0,0.02
2013-3-8,27.8,21.0,10.1,26.0,17.7,7.0,94,87,77,30.30,30.07,8,3,0,0.00
2013-3-9,29.0,24.2,14.8,27.0,20.7,11.0,96,86,75,30.37,30.02,14,5,0,0.00
2013-3-10,34.4,21.4,6.8,25.0,16.1,4.0,91,80,65,30.43,30.01,6,2,0,0.00
2013-3-11,34.4,28.4,20.1,27.0,22.8,16.0,89,79,67,30.27,29.90,21,10,0,0.00
2013-3-12,28.8,20.8,12.3,19.0,14.3,8.0,86,76,64,30.47,30.28,15,5,0,0.00
2013-3-13,55.8,37.3,24.0,42.0,28.9,17.0,83,72,58,30.29,29.97,15,4,0,0.00
2013-3-14,52.0,37.3,28.7,41.0,32.7,25.0,92,83,63,30.14,30.05,12,5,0,0.00
2013-3-15,28.8,22.2,10.9,26.0,18.8,7.0,92,86,83,30.31,29.95,12,7,0,0.00
2013-3-16,16.2,13.0,8.6,12.0,8.6,4.0,88,82,74,30.35,30.11,10,5,0,0.00
2013-3-17,29.5,20.3,6.7,26.0,16.9,3.0,90,86,81,30.09,29.58,22,8,0,0.03
2013-3-18,21.6,11.1,2.6,13.0,5.3,-2.0,92,78,61,30.17,29.98,15,6,0,0.02
2013-3-19,18.0,12.5,7.2,11.0,6.5,3.0,86,77,63,30.56,30.09,13,6,0,0.00
2013-3-20,35.8,20.5,1.3,24.0,12.4,-1.0,89,73,50,30.53,29.99,15,5,0,0.01
2013-3-21,25.1,22.7,18.5,22.0,15.9,10.0,92,75,59,30.01,29.90,12,6,0,0.00
2013-3-22,30.9,20.3,6.8,25.0,17.0,4.0,92,87,76,30.23,29.99,14,4,0,0.26
2013-3-23,20.2,12.2,4.2,15.0,8.1,1.0,95,83,77,30.44,30.23,12,6,0,0.00
2013-3-24,20.7,14.9,4.1,17.0,11.5,1.0,88,86,81,30.55,30.42,15,8,0,0.00
2013-3-25,26.2,10.0,-5.5,17.0,4.9,-9.0,90,80,64,30.57,30.36,5,1,0,0.02
2013-3-26,40.9,23.3,8.0,30.0,17.3,5.0,92,79,53,30.35,30.15,8,1,0,0.02
2013-3-27,36.1,24.0,11.1,29.0,20.2,8.0,92,86,73,30.24,30.16,7,2,0,0.00
2013-3-28,39.6,26.3,15.0,33.0,22.9,13.0,92,87,75,30.28,30.22,9,6,0,0.00
2013-3-29,48.3,34.9,25.7,41.0,31.6,24.0,94,88,75,30.23,30.06,11,2,0,0.00
2013-3-30,44.7,34.6,24.3,39.0,30.1,23.0,96,84,68,30.18,30.11,15,4,0,0.01
2013-3-31,31.1,27.7,22.2,27.0,21.6,15.0,94,78,62,30.37,30.13,11,5,0,0.05